Regional Weather Roundup
Issued by NWS

Home | Current Version | Previous Version | Graphics & Text | Print | Product List | Glossary On
Versions: 1 2 3 4 5 6 7 8 9 10 11 12 13 14 15 16 17 18 19 20 21 22 23 24 25 26 27
000
ASUS45 KBOU 230307
RWRCO

WEATHER ROUNDUP FOR COLORADO
NATIONAL WEATHER SERVICE DENVER/BOULDER CO
900 PM MDT SAT APR 22 2017

NOTE: "FAIR" INDICATES FEW OR NO CLOUDS BELOW 12000 FEET WITH NO
SIGNIFICANT WEATHER AND/OR OBSTRUCTIONS TO VISIBILITY.

COZ001>005-013-030-031-230400-
...NORTHWEST COLORADO...

CITY           SKY/WX    TMP DP  RH WIND       PRES   REMARKS
CRAIG          FAIR      44  31  60 CALM      30.12S
HAYDEN         FAIR      46  21  36 CALM      30.13S
MEEKER         FAIR      44  30  57 SE3       30.12R
MOUNT WERNER   NOT AVBL
STEAMBOAT SPGS FAIR      43  23  45 E8        30.14S
WALDEN           N/A     39  21  48 S6        30.20R
$$

COZ006>008-011-230400-
...WEST CENTRAL VALLEYS...

CITY           SKY/WX    TMP DP  RH WIND       PRES   REMARKS
GRAND JUNCTION FAIR      51  17  26 CALM      30.08R
MONTROSE       FAIR      49  19  30 SE6       30.12R
EAGLE          FAIR      46  24  42 NE3       30.17R
RIFLE          FAIR      50  23  34 SW7       30.11R
DELTA          FAIR      55  18  23 N3        30.10R
NUCLA          FAIR      59  14  17 CALM      30.14R
$$

COZ017>023-064>068-230400-
...SOUTHWEST COLORADO...

CITY           SKY/WX    TMP DP  RH WIND       PRES   REMARKS
DURANGO        FAIR      51  15  23 SW3       30.17R
CORTEZ         FAIR      47  23  38 S3        30.13R
PAGOSA SPRINGS FAIR      50  13  22 W5        30.22R
TELLURIDE      FAIR      46  16  30 E7        30.26R
WOLF CREEK PAS FAIR      30  16  55 S17G23    30.41R WCI  18
$$

COZ009-010-012-014-032>034-037-058>063-230400-
...CENTRAL COLORADO...

CITY           SKY/WX    TMP DP  RH WIND       PRES   REMARKS
ASPEN          FAIR      39  21  48 SW8       30.18R
BUENA VISTA    FAIR      40  25  55 SE5       30.26R
COPPER MTN     FAIR      34  12  40 MISG      30.33S
BERTHOUD PASS  HAZE      19  10  68 S12       30.33S VSB 1/4 WCI   7
COTTONWOOD PAS FAIR      37  21  52 CALM      30.31R
GUNNISON       FAIR      44  19  36 N8        30.19R
KREMMLING      FAIR      45  23  42 W3        30.19R
LEADVILLE      FAIR      32  22  66 S9        30.26R WCI  24
MONARCH PASS   FAIR      27  21  80 NE5       30.46R WCI  21
SALIDA         FAIR      43  28  54 SE15G23   30.33R
SUNLIGHT       FAIR      28  19  69 SW9       30.31F WCI  20
WILKERSON PASS FAIR      28  19  69 SE3       30.36S
$$

COZ069>075-230400-
...SAN LUIS VALLEY/SANGRE DE CRISTO MOUNTAINS...

CITY           SKY/WX    TMP DP  RH WIND       PRES   REMARKS
ALAMOSA        FAIR      41  28  60 E14G22    30.21R
LA VETA PASS   FAIR      27  25  93 NE12      30.43R WCI  16
SAGUACHE       FAIR      41  21  45 W7        30.22R
$$

COZ035-036-038>040-230400-
...NORTHERN COLORADO FRONT RANGE...

CITY           SKY/WX    TMP DP  RH WIND       PRES   REMARKS
DENVER INTL AP FAIR      39  30  70 S10       30.20R
DMNS CITY PARK   N/A     50  28  41 E13       30.20S
AURORA         CLEAR     45  31  57 SE13      30.21S
FRONT RANGE AP PTCLDY    45  32  61 SE10      30.22R
ERIE MUNI ARPT FAIR      46  30  54 E5        30.19S
BOULDER MUN AP FAIR      48  32  53 SW5       30.18F
CENTENNIAL     FAIR      45  32  60 S10       30.21R
BROOMFIELD     PTCLDY    48  27  43 E7        30.20S
FORT COLLINS   FAIR      48  33  56 SE10      30.19S
LONGMONT       FAIR      46  36  68 W5        30.20F
$$

COZ041-046-047-076>085-087-088-230400-
...PIKES PEAK/PALMER DIVIDE AND SOUTHERN FOOTHILLS...

CITY           SKY/WX    TMP DP  RH WIND       PRES   REMARKS
COLO. SPRINGS  FAIR      43  34  70 S12       30.27R
A. F. ACADEMY  FAIR      41  32  70 S10       30.26R
SCHRIEVER AFB  FAIR      39  33  80 SW9       30.28R
ELLICOTT       FAIR     N/A N/A N/A S8        30.27R
FALCON         FAIR      38  32  78 S9        30.29R
FORT CARSON    MOCLDY    45  35  68 S8        30.26R
LIMON          FAIR      40  33  76 S6        30.25R
MONUMENT HILL  FAIR      34  30  86 S10       30.27R WCI  26
TRINIDAD       FAIR      42  31  64 S8        30.29R
$$

COZ042>045-048>051-090-091-230400-
...NORTHEAST COLORADO...

CITY           SKY/WX    TMP DP  RH WIND       PRES   REMARKS
GREELEY ARPT   FAIR      49  34  56 SE8       30.20S
AKRON          FAIR      44  30  57 SE6       30.23R
BURLINGTON     NOT AVBL
WRAY           NOT AVBL
STERLING       FAIR      46  36  66 S5        30.20S
HOLYOKE        FAIR      45  37  76 S9        30.23R
FORT MORGAN    FAIR      44  32  62 SE8       30.22S
$$

COZ086-089-092>099-230400-
...SOUTHEAST COLORADO...

CITY           SKY/WX    TMP DP  RH WIND       PRES   REMARKS
PUEBLO         FAIR      49  34  56 S5        30.26R
LA JUNTA       FAIR      49  36  61 SE6       30.26R
LAMAR          FAIR      46  35  65 SE10      30.25R
SPRINGFIELD      N/A     40  31  70 CALM      30.28R
$$




USA.gov is the U.S. government's official web portal to all federal, state and local government web resources and services.